DW9498 Weather Reports


Display with metric or nautical units.
time (UTC)temp
F
wind
direction
speed
MPH
gust
MPH
rain 1hr
in
rain 24hr
in
rain mn
in
humidity
%
barometer
mb
20260905004344 92 154 0.0 0.0 0.00 0.00 0.00 64 1010.9
20260905003331 93 154 0.0 0.0 0.00 0.00 0.00 62 1010.9
20260905002324 93 154 0.0 0.0 0.00 0.00 0.00 60 1010.8
20260905001402 94 153 0.0 0.0 0.00 0.00 0.00 59 1010.8
20260905000350 94 155 0.0 0.0 0.00 0.00 0.00 58 1010.8
20260904235327 94 171 0.0 3.0 0.00 0.00 0.00 58 1010.8
20260904234329 94 171 1.0 3.0 0.00 0.00 0.00 58 1010.9
20260904233337 95 191 0.0 1.0 0.00 0.00 0.00 57 1010.9
20260904232329 96 162 0.0 2.0 0.00 0.00 0.00 55 1010.9
20260904231400 98 244 0.0 3.0 0.00 0.00 0.00 53 1011.1
20260904230329 98 146 0.0 1.0 0.00 0.00 0.00 53 1011.0
20260904225334 97 149 0.0 4.0 0.00 0.00 0.00 54 1011.0
20260904224340 97 185 0.0 2.0 0.00 0.00 0.00 54 1011.0
20260904223351 97 261 0.0 3.0 0.00 0.00 0.00 54 1011.0
20260904222333 97 176 1.0 4.0 0.00 0.00 0.00 53 1011.1
20260904221333 98 121 1.0 5.0 0.00 0.00 0.00 52 1011.0
20260904220340 98 228 0.0 4.0 0.00 0.00 0.00 53 1010.9
20260904215327 98 144 3.0 5.0 0.00 0.00 0.00 52 1010.9
20260904214335 98 161 1.0 5.0 0.00 0.00 0.00 54 1010.9
20260904213325 97 138 0.0 6.0 0.00 0.00 0.00 53 1010.9
20260904212331 97 158 2.0 6.0 0.00 0.00 0.00 52 1010.9
20260904211330 97 154 2.0 6.0 0.00 0.00 0.00 51 1011.0
20260904210355 97 216 2.0 6.0 0.00 0.00 0.00 52 1011.0
20260904205342 97 154 2.0 5.0 0.00 0.00 0.00 53 1011.0
20260904204346 97 137 2.0 5.0 0.00 0.00 0.00 54 1011.0
20260904203331 97 272 2.0 6.0 0.00 0.00 0.00 53 1011.0
20260904202342 97 220 2.0 7.0 0.00 0.00 0.00 54 1011.1
20260904201325 97 131 1.0 6.0 0.00 0.00 0.00 54 1011.2
20260904200355 97 138 2.0 7.0 0.00 0.00 0.00 53 1011.3
20260904195324 97 239 0.0 4.0 0.00 0.00 0.00 54 1011.3
20260904194359 97 210 2.0 4.0 0.00 0.00 0.00 53 1011.4
20260904193327 97 169 2.0 4.0 0.00 0.00 0.00 54 1011.4
20260904192337 96 156 1.0 5.0 0.00 0.00 0.00 55 1011.5
20260904191342 96 282 1.0 6.0 0.00 0.00 0.00 55 1011.4
20260904190346 95 175 1.0 5.0 0.00 0.00 0.00 55 1011.6
20260904185329 95 131 1.0 4.0 0.00 0.00 0.00 55 1011.7
20260904184334 94 156 2.0 8.0 0.00 0.00 0.00 55 1011.8
20260904183344 95 253 0.0 5.0 0.00 0.00 0.00 56 1011.8
20260904182333 95 123 3.0 5.0 0.00 0.00 0.00 56 1011.8
20260904181343 94 307 1.0 3.0 0.00 0.00 0.00 57 1011.8
20260904180334 93 138 0.0 6.0 0.00 0.00 0.00 58 1011.9
20260904175328 93 286 0.0 3.0 0.00 0.00 0.00 57 1011.9
20260904174348 93 178 1.0 4.0 0.00 0.00 0.00 58 1012.0
20260904173323 92 235 1.0 6.0 0.00 0.00 0.00 59 1011.9
20260904172331 92 292 1.0 6.0 0.00 0.00 0.00 59 1011.9
20260904171333 91 203 1.0 4.0 0.00 0.00 0.00 60 1012.0
20260904170340 90 60 0.0 6.0 0.00 0.00 0.00 63 1012.0
20260904165326 90 148 2.0 6.0 0.00 0.00 0.00 61 1011.9
20260904164325 89 138 1.0 5.0 0.00 0.00 0.00 62 1012.0
20260904163351 89 171 2.0 4.0 0.00 0.00 0.00 62 1012.0
20260904162333 88 220 1.0 4.0 0.00 0.00 0.00 64 1011.9
20260904161406 88 62 2.0 4.0 0.00 0.00 0.00 64 1012.0
20260904160334 87 142 1.0 6.0 0.00 0.00 0.00 66 1012.0
20260904155329 87 260 0.0 6.0 0.00 0.00 0.00 66 1012.1
20260904154333 86 117 1.0 4.0 0.00 0.00 0.00 68 1012.0
20260904153344 86 152 3.0 6.0 0.00 0.00 0.00 67 1012.0
20260904152348 85 159 2.0 5.0 0.00 0.00 0.00 68 1011.9
20260904151326 84 211 0.0 6.0 0.00 0.00 0.00 69 1011.9
20260904150335 83 168 2.0 5.0 0.00 0.00 0.00 70 1012.0
20260904145349 83 138 0.0 4.0 0.00 0.00 0.00 71 1012.1
20260904144339 82 178 0.0 3.0 0.00 0.00 0.00 73 1012.0
20260904143346 81 178 1.0 4.0 0.00 0.00 0.00 73 1012.0
20260904142332 81 193 0.0 3.0 0.00 0.00 0.00 74 1011.9
20260904141339 80 154 1.0 3.0 0.00 0.00 0.00 73 1011.9
20260904140350 80 186 0.0 1.0 0.00 0.00 0.00 75 1011.9
20260904135336 79 185 0.0 2.0 0.00 0.00 0.00 75 1011.9
20260904134341 79 151 0.0 2.0 0.00 0.00 0.00 76 1011.8
20260904133323 79 268 0.0 2.0 0.00 0.00 0.00 76 1011.7
20260904132356 78 187 0.0 2.0 0.00 0.00 0.00 76 1011.6
20260904131333 78 235 0.0 1.0 0.00 0.00 0.00 76 1011.4
20260904130323 78 217 0.0 1.0 0.00 0.00 0.00 77 1011.3
20260904125336 77 192 0.0 0.0 0.00 0.00 0.00 77 1011.3
20260904124338 77 155 0.0 0.0 0.00 0.00 0.00 77 1011.2
20260904123407 77 152 0.0 0.0 0.00 0.00 0.00 77 1011.1
20260904122333 77 152 0.0 0.0 0.00 0.00 0.00 77 1011.0
20260904121340 77 154 0.0 0.0 0.00 0.00 0.00 76 1011.0
20260904120346 77 154 0.0 0.0 0.00 0.00 0.00 76 1010.9
20260904115348 78 154 0.0 0.0 0.00 0.00 0.00 75 1010.9
20260904114329 78 154 0.0 0.0 0.00 0.00 0.00 74 1010.8
20260904113354 79 154 0.0 0.0 0.00 0.00 0.00 73 1010.7
20260904112341 79 154 0.0 0.0 0.00 0.00 0.00 72 1010.8
20260904111324 80 154 0.0 0.0 0.00 0.00 0.00 72 1010.7
20260904110333 80 153 0.0 2.0 0.00 0.00 0.00 71 1010.7
20260904105338 80 148 0.0 1.0 0.00 0.00 0.00 71 1010.7
20260904104344 80 141 1.0 5.0 0.00 0.00 0.00 70 1010.5
20260904103326 81 250 1.0 4.0 0.00 0.00 0.00 70 1010.6
20260904102340 81 136 0.0 2.0 0.00 0.00 0.00 70 1010.6
20260904101346 81 173 0.0 4.0 0.00 0.00 0.00 69 1010.6
20260904100337 81 152 0.0 4.0 0.00 0.00 0.00 69 1010.6
20260904095329 82 214 1.0 5.0 0.00 0.00 0.00 68 1010.5
20260904094335 82 136 2.0 6.0 0.00 0.00 0.00 68 1010.4
20260904093324 82 162 1.0 7.0 0.00 0.00 0.00 68 1010.2
20260904092334 82 112 0.0 5.0 0.00 0.00 0.00 67 1010.2
20260904091351 82 154 2.0 6.0 0.00 0.00 0.00 67 1010.1
20260904090330 82 199 2.0 5.0 0.00 0.00 0.00 67 1010.0
20260904085402 82 159 2.0 6.0 0.00 0.00 0.00 67 1010.0
20260904084344 82 213 1.0 6.0 0.00 0.00 0.00 67 1009.9
20260904083326 82 144 2.0 7.0 0.00 0.00 0.00 67 1010.0
20260904082400 82 237 2.0 8.0 0.00 0.00 0.00 67 1009.9
20260904081349 82 228 2.0 9.0 0.00 0.00 0.00 67 1009.9
20260904080333 82 187 2.0 5.0 0.00 0.00 0.00 67 1009.9
20260904075337 82 147 2.0 6.0 0.00 0.00 0.00 67 1010.0
20260904074325 81 203 2.0 6.0 0.00 0.00 0.00 67 1010.0
20260904073339 81 236 2.0 6.0 0.00 0.00 0.00 67 1010.0
20260904072327 81 140 2.0 5.0 0.00 0.00 0.00 66 1010.0
20260904071404 81 163 1.0 3.0 0.00 0.00 0.00 67 1010.0
20260904070333 81 297 1.0 3.0 0.00 0.00 0.00 67 1010.0
20260904065327 82 173 1.0 3.0 0.00 0.00 0.00 66 1010.0
20260904064402 82 141 1.0 4.0 0.00 0.00 0.00 66 1010.1
20260904063346 82 224 0.0 5.0 0.00 0.00 0.00 66 1010.1
20260904062331 82 228 1.0 3.0 0.00 0.00 0.00 66 1010.1
20260904061337 82 174 1.0 4.0 0.00 0.00 0.00 65 1010.0
20260904060348 83 169 2.0 4.0 0.00 0.00 0.00 64 1009.9
20260904055332 83 148 2.0 7.0 0.00 0.00 0.00 64 1009.9
20260904054403 83 168 2.0 6.0 0.00 0.00 0.00 64 1009.7
20260904053330 83 149 0.0 6.0 0.00 0.00 0.00 64 1009.7
20260904052341 83 171 2.0 8.0 0.00 0.00 0.00 64 1009.6
20260904051327 83 216 1.0 7.0 0.00 0.00 0.00 64 1009.5
20260904050336 83 225 1.0 5.0 0.00 0.00 0.00 64 1009.5
20260904045328 83 157 0.0 3.0 0.00 0.00 0.00 64 1009.5
20260904044335 84 179 1.0 6.0 0.00 0.00 0.00 64 1009.5
20260904043326 84 258 1.0 4.0 0.00 0.00 0.00 64 1009.5
20260904042358 84 202 0.0 1.0 0.00 0.00 0.00 64 1009.5
20260904041341 84 212 1.0 3.0 0.00 0.00 0.00 64 1009.6
20260904040355 84 147 0.0 3.0 0.00 0.00 0.00 64 1009.5
20260904035327 84 358 0.0 2.0 0.00 0.00 0.00 64 1009.5
20260904034350 84 157 1.0 7.0 0.00 0.00 0.00 64 1009.6
20260904033330 85 273 0.0 2.0 0.00 0.00 0.00 64 1009.7
20260904032327 85 294 0.0 2.0 0.00 0.00 0.00 65 1009.6
20260904031345 85 249 0.0 4.0 0.00 0.00 0.00 64 1009.5
20260904030327 85 223 0.0 2.0 0.00 0.00 0.00 64 1009.4
20260904025339 85 161 0.0 3.0 0.00 0.00 0.00 64 1009.4
20260904024325 86 279 0.0 2.0 0.00 0.00 0.00 64 1009.4
20260904023333 86 244 1.0 3.0 0.00 0.00 0.00 64 1009.3
20260904022345 86 190 1.0 3.0 0.00 0.00 0.00 64 1009.2
20260904021331 86 244 0.0 3.0 0.00 0.00 0.00 63 1009.1
20260904020339 87 144 0.0 1.0 0.00 0.00 0.00 63 1009.1
20260904015325 87 230 0.0 2.0 0.00 0.00 0.00 62 1009.1
20260904014354 87 278 0.0 1.0 0.00 0.00 0.00 62 1008.9
20260904013323 88 81 0.0 0.0 0.00 0.00 0.00 61 1008.7
20260904012336 88 175 0.0 2.0 0.00 0.00 0.00 60 1008.6
20260904011343 89 239 0.0 2.0 0.00 0.00 0.00 60 1008.5
20260904010336 89 205 0.0 2.0 0.00 0.00 0.00 60 1008.4
20260904005324 90 275 0.0 0.0 0.00 0.00 0.00 59 1008.3